﻿測定場所 (Monitoring sites),日付 (Measurement date),時間 (Measurement time),線量率 最大値 (max) μGy/h,線量率 最小値 (min) μGy/h,線量率 平均値 (average) μGy/h,
大田 (Ota),2017-04-02,23:01～24:00,0.0369,0.0328,0.0350,
大田 (Ota),2017-04-02,22:01～23:00,0.0369,0.0335,0.0352,
大田 (Ota),2017-04-02,21:01～22:00,0.0371,0.0328,0.0353,
大田 (Ota),2017-04-02,20:01～21:00,0.0368,0.0334,0.0352,
大田 (Ota),2017-04-02,19:01～20:00,0.0379,0.0337,0.0351,
大田 (Ota),2017-04-02,18:01～19:00,0.0367,0.0330,0.0352,
大田 (Ota),2017-04-02,17:01～18:00,0.0374,0.0329,0.0354,
大田 (Ota),2017-04-02,16:01～17:00,0.0372,0.0331,0.0356,
大田 (Ota),2017-04-02,15:01～16:00,0.0373,0.0336,0.0356,
大田 (Ota),2017-04-02,14:01～15:00,0.0381,0.0341,0.0358,
大田 (Ota),2017-04-02,13:01～14:00,0.0390,0.0339,0.0358,
大田 (Ota),2017-04-02,12:01～13:00,0.0374,0.0344,0.0356,
大田 (Ota),2017-04-02,11:01～12:00,0.0371,0.0341,0.0357,
大田 (Ota),2017-04-02,10:01～11:00,0.0382,0.0332,0.0356,
大田 (Ota),2017-04-02,09:01～10:00,0.0376,0.0342,0.0358,
大田 (Ota),2017-04-02,08:01～09:00,0.0377,0.0331,0.0354,
大田 (Ota),2017-04-02,07:01～08:00,0.0393,0.0329,0.0352,
大田 (Ota),2017-04-02,06:01～07:00,0.0367,0.0327,0.0350,
大田 (Ota),2017-04-02,05:01～06:00,0.0373,0.0330,0.0351,
大田 (Ota),2017-04-02,04:01～05:00,0.0374,0.0328,0.0352,
大田 (Ota),2017-04-02,03:01～04:00,0.0365,0.0326,0.0347,
大田 (Ota),2017-04-02,02:01～03:00,0.0363,0.0332,0.0349,
大田 (Ota),2017-04-02,01:01～02:00,0.0372,0.0332,0.0351,
大田 (Ota),2017-04-02,00:01～01:00,0.0382,0.0315,0.0349,
大田 (Ota),2017-04-01,23:01～24:00,0.0382,0.0329,0.0348,
大田 (Ota),2017-04-01,22:01～23:00,0.0374,0.0328,0.0350,
大田 (Ota),2017-04-01,21:01～22:00,0.0371,0.0328,0.0349,
大田 (Ota),2017-04-01,20:01～21:00,0.0368,0.0335,0.0350,
大田 (Ota),2017-04-01,19:01～20:00,0.0368,0.0332,0.0351,
大田 (Ota),2017-04-01,18:01～19:00,0.0372,0.0331,0.0353,
大田 (Ota),2017-04-01,17:01～18:00,0.0393,0.0327,0.0356,
大田 (Ota),2017-04-01,16:01～17:00,0.0378,0.0333,0.0356,
大田 (Ota),2017-04-01,15:01～16:00,0.0374,0.0320,0.0354,
大田 (Ota),2017-04-01,14:01～15:00,0.0393,0.0338,0.0355,
大田 (Ota),2017-04-01,13:01～14:00,0.0379,0.0340,0.0357,
大田 (Ota),2017-04-01,12:01～13:00,0.0382,0.0332,0.0361,
大田 (Ota),2017-04-01,11:01～12:00,0.0403,0.0354,0.0372,
大田 (Ota),2017-04-01,10:01～11:00,0.0418,0.0365,0.0390,
大田 (Ota),2017-04-01,09:01～10:00,0.0428,0.0358,0.0392,
大田 (Ota),2017-04-01,08:01～09:00,0.0430,0.0365,0.0388,
大田 (Ota),2017-04-01,07:01～08:00,0.0430,0.0373,0.0404,
大田 (Ota),2017-04-01,06:01～07:00,0.0450,0.0382,0.0414,
大田 (Ota),2017-04-01,05:01～06:00,0.0445,0.0380,0.0407,
大田 (Ota),2017-04-01,04:01～05:00,0.0463,0.0383,0.0416,
大田 (Ota),2017-04-01,03:01～04:00,0.0475,0.0397,0.0435,
大田 (Ota),2017-04-01,02:01～03:00,0.0503,0.0422,0.0453,
大田 (Ota),2017-04-01,01:01～02:00,0.0511,0.0432,0.0474,
大田 (Ota),2017-04-01,00:01～01:00,0.0502,0.0419,0.0457,
大田 (Ota),2017-03-31,23:01～24:00,0.0482,0.0417,0.0445,
大田 (Ota),2017-03-31,22:01～23:00,0.0480,0.0400,0.0430,
大田 (Ota),2017-03-31,21:01～22:00,0.0455,0.0373,0.0411,
大田 (Ota),2017-03-31,20:01～21:00,0.0442,0.0378,0.0411,
大田 (Ota),2017-03-31,19:01～20:00,0.0448,0.0370,0.0409,
大田 (Ota),2017-03-31,18:01～19:00,0.0473,0.0369,0.0434,
大田 (Ota),2017-03-31,17:01～18:00,0.0477,0.0394,0.0438,
大田 (Ota),2017-03-31,16:01～17:00,0.0484,0.0403,0.0436,
大田 (Ota),2017-03-31,15:01～16:00,0.0456,0.0402,0.0428,
大田 (Ota),2017-03-31,14:01～15:00,0.0473,0.0403,0.0441,
大田 (Ota),2017-03-31,13:01～14:00,0.0462,0.0401,0.0434,
大田 (Ota),2017-03-31,12:01～13:00,0.0463,0.0354,0.0414,
大田 (Ota),2017-03-31,11:01～12:00,0.0377,0.0343,0.0360,
大田 (Ota),2017-03-31,10:01～11:00,0.0388,0.0340,0.0361,
大田 (Ota),2017-03-31,09:01～10:00,0.0385,0.0336,0.0361,
大田 (Ota),2017-03-31,08:01～09:00,0.0375,0.0330,0.0360,
大田 (Ota),2017-03-31,07:01～08:00,0.0395,0.0338,0.0359,
大田 (Ota),2017-03-31,06:01～07:00,0.0382,0.0344,0.0361,
大田 (Ota),2017-03-31,05:01～06:00,0.0377,0.0339,0.0359,
大田 (Ota),2017-03-31,04:01～05:00,0.0377,0.0339,0.0360,
大田 (Ota),2017-03-31,03:01～04:00,0.0378,0.0338,0.0359,
大田 (Ota),2017-03-31,02:01～03:00,0.0383,0.0340,0.0362,
大田 (Ota),2017-03-31,01:01～02:00,0.0383,0.0344,0.0362,
大田 (Ota),2017-03-31,00:01～01:00,0.0383,0.0346,0.0363,
大田 (Ota),2017-03-30,23:01～24:00,0.0375,0.0332,0.0359,
大田 (Ota),2017-03-30,22:01～23:00,0.0395,0.0343,0.0363,
大田 (Ota),2017-03-30,21:01～22:00,0.0380,0.0341,0.0361,
大田 (Ota),2017-03-30,20:01～21:00,0.0389,0.0343,0.0360,
大田 (Ota),2017-03-30,19:01～20:00,0.0392,0.0341,0.0360,
大田 (Ota),2017-03-30,18:01～19:00,0.0390,0.0342,0.0361,
大田 (Ota),2017-03-30,17:01～18:00,0.0374,0.0328,0.0358,
大田 (Ota),2017-03-30,16:01～17:00,0.0378,0.0333,0.0359,
大田 (Ota),2017-03-30,15:01～16:00,0.0381,0.0340,0.0362,
大田 (Ota),2017-03-30,14:01～15:00,0.0378,0.0341,0.0360,
大田 (Ota),2017-03-30,13:01～14:00,0.0385,0.0342,0.0360,
大田 (Ota),2017-03-30,12:01～13:00,0.0400,0.0339,0.0359,
大田 (Ota),2017-03-30,11:01～12:00,0.0399,0.0324,0.0360,
大田 (Ota),2017-03-30,10:01～11:00,0.0393,0.0347,0.0362,
大田 (Ota),2017-03-30,09:01～10:00,0.0375,0.0341,0.0360,
大田 (Ota),2017-03-30,08:01～09:00,0.0383,0.0344,0.0361,
大田 (Ota),2017-03-30,07:01～08:00,0.0391,0.0339,0.0360,
大田 (Ota),2017-03-30,06:01～07:00,0.0387,0.0340,0.0358,
大田 (Ota),2017-03-30,05:01～06:00,0.0388,0.0338,0.0359,
大田 (Ota),2017-03-30,04:01～05:00,0.0383,0.0347,0.0362,
大田 (Ota),2017-03-30,03:01～04:00,0.0398,0.0335,0.0361,
大田 (Ota),2017-03-30,02:01～03:00,0.0384,0.0332,0.0357,
大田 (Ota),2017-03-30,01:01～02:00,0.0377,0.0324,0.0357,
大田 (Ota),2017-03-30,00:01～01:00,0.0378,0.0330,0.0357,
大田 (Ota),2017-03-29,23:01～24:00,0.0380,0.0331,0.0355,
大田 (Ota),2017-03-29,22:01～23:00,0.0374,0.0340,0.0357,
大田 (Ota),2017-03-29,21:01～22:00,0.0381,0.0335,0.0356,
大田 (Ota),2017-03-29,20:01～21:00,0.0381,0.0334,0.0355,
大田 (Ota),2017-03-29,19:01～20:00,0.0378,0.0330,0.0354,
大田 (Ota),2017-03-29,18:01～19:00,0.0371,0.0335,0.0354,
大田 (Ota),2017-03-29,17:01～18:00,0.0374,0.0339,0.0355,
大田 (Ota),2017-03-29,16:01～17:00,0.0378,0.0333,0.0357,
大田 (Ota),2017-03-29,15:01～16:00,0.0377,0.0340,0.0357,
大田 (Ota),2017-03-29,14:01～15:00,0.0385,0.0336,0.0356,
大田 (Ota),2017-03-29,13:01～14:00,0.0384,0.0343,0.0362,
大田 (Ota),2017-03-29,12:01～13:00,0.0375,0.0342,0.0358,
大田 (Ota),2017-03-29,11:01～12:00,0.0373,0.0338,0.0356,
大田 (Ota),2017-03-29,10:01～11:00,0.0406,0.0336,0.0359,
大田 (Ota),2017-03-29,09:01～10:00,0.0382,0.0337,0.0358,
大田 (Ota),2017-03-29,08:01～09:00,0.0381,0.0342,0.0358,
大田 (Ota),2017-03-29,07:01～08:00,0.0374,0.0336,0.0357,
大田 (Ota),2017-03-29,06:01～07:00,0.0371,0.0324,0.0354,
大田 (Ota),2017-03-29,05:01～06:00,0.0377,0.0339,0.0356,
大田 (Ota),2017-03-29,04:01～05:00,0.0373,0.0341,0.0357,
大田 (Ota),2017-03-29,03:01～04:00,0.0382,0.0337,0.0355,
大田 (Ota),2017-03-29,02:01～03:00,0.0379,0.0335,0.0357,
大田 (Ota),2017-03-29,01:01～02:00,0.0371,0.0335,0.0354,
大田 (Ota),2017-03-29,00:01～01:00,0.0382,0.0323,0.0355,
大田 (Ota),2017-03-28,23:01～24:00,0.0371,0.0336,0.0353,
大田 (Ota),2017-03-28,22:01～23:00,0.0381,0.0331,0.0353,
大田 (Ota),2017-03-28,21:01～22:00,0.0380,0.0326,0.0353,
大田 (Ota),2017-03-28,20:01～21:00,0.0392,0.0344,0.0360,
大田 (Ota),2017-03-28,19:01～20:00,0.0432,0.0349,0.0380,
大田 (Ota),2017-03-28,18:01～19:00,0.0459,0.0387,0.0429,
大田 (Ota),2017-03-28,17:01～18:00,0.0435,0.0343,0.0373,
大田 (Ota),2017-03-28,16:01～17:00,0.0386,0.0340,0.0359,
大田 (Ota),2017-03-28,15:01～16:00,0.0384,0.0335,0.0356,
大田 (Ota),2017-03-28,14:01～15:00,0.0388,0.0339,0.0357,
大田 (Ota),2017-03-28,13:01～14:00,0.0377,0.0333,0.0357,
大田 (Ota),2017-03-28,12:01～13:00,0.0375,0.0333,0.0356,
大田 (Ota),2017-03-28,11:01～12:00,0.0386,0.0339,0.0358,
大田 (Ota),2017-03-28,10:01～11:00,0.0385,0.0331,0.0356,
大田 (Ota),2017-03-28,09:01～10:00,0.0394,0.0337,0.0357,
大田 (Ota),2017-03-28,08:01～09:00,0.0382,0.0333,0.0357,
大田 (Ota),2017-03-28,07:01～08:00,0.0372,0.0337,0.0353,
大田 (Ota),2017-03-28,06:01～07:00,0.0371,0.0319,0.0349,
大田 (Ota),2017-03-28,05:01～06:00,0.0370,0.0338,0.0354,
大田 (Ota),2017-03-28,04:01～05:00,0.0371,0.0334,0.0351,
大田 (Ota),2017-03-28,03:01～04:00,0.0364,0.0329,0.0349,
大田 (Ota),2017-03-28,02:01～03:00,0.0370,0.0333,0.0351,
大田 (Ota),2017-03-28,01:01～02:00,0.0368,0.0329,0.0351,
大田 (Ota),2017-03-28,00:01～01:00,0.0378,0.0333,0.0351,
大田 (Ota),2017-03-27,23:01～24:00,0.0370,0.0326,0.0352,
大田 (Ota),2017-03-27,22:01～23:00,0.0376,0.0327,0.0352,
大田 (Ota),2017-03-27,21:01～22:00,0.0367,0.0327,0.0349,
大田 (Ota),2017-03-27,20:01～21:00,0.0367,0.0336,0.0352,
大田 (Ota),2017-03-27,19:01～20:00,0.0390,0.0331,0.0350,
大田 (Ota),2017-03-27,18:01～19:00,0.0366,0.0326,0.0350,
大田 (Ota),2017-03-27,17:01～18:00,0.0372,0.0329,0.0352,
大田 (Ota),2017-03-27,16:01～17:00,0.0373,0.0337,0.0354,
大田 (Ota),2017-03-27,15:01～16:00,0.0384,0.0332,0.0357,
大田 (Ota),2017-03-27,14:01～15:00,0.0400,0.0343,0.0370,
大田 (Ota),2017-03-27,13:01～14:00,0.0418,0.0356,0.0382,
大田 (Ota),2017-03-27,12:01～13:00,0.0425,0.0357,0.0381,
大田 (Ota),2017-03-27,11:01～12:00,0.0431,0.0363,0.0399,
大田 (Ota),2017-03-27,10:01～11:00,0.0420,0.0368,0.0390,
大田 (Ota),2017-03-27,09:01～10:00,0.0424,0.0362,0.0390,
大田 (Ota),2017-03-27,08:01～09:00,0.0452,0.0370,0.0406,
大田 (Ota),2017-03-27,07:01～08:00,0.0477,0.0395,0.0438,
大田 (Ota),2017-03-27,06:01～07:00,0.0472,0.0405,0.0435,
大田 (Ota),2017-03-27,05:01～06:00,0.0467,0.0377,0.0417,
大田 (Ota),2017-03-27,04:01～05:00,0.0447,0.0385,0.0420,
大田 (Ota),2017-03-27,03:01～04:00,0.0493,0.0396,0.0438,
大田 (Ota),2017-03-27,02:01～03:00,0.0449,0.0360,0.0404,
大田 (Ota),2017-03-27,01:01～02:00,0.0408,0.0354,0.0375,
大田 (Ota),2017-03-27,00:01～01:00,0.0431,0.0354,0.0385,
